Location: Unspecified
(0.0000°N, 0.0000°E)
Time: 12:51:13
(UTC+02:00)

SWIFT - Visible Passes

Search period start: 25 July 2017 00:00
Search period end: 04 August 2017 00:00
Orbit: 547 x 563 km, 20.6° (Epoch: 24 July)

Date Brightness Start Highest point End Pass type
(mag) Time Alt. Az. Time Alt. Az. Time Alt. Az.
25 Jul 4.6 07:06:32 10° NNW 07:09:52 22° NNE 07:13:13 10° ENE visible
25 Jul 2.3 20:45:04 10° WSW 20:49:17 85° NNW 20:53:28 10° ENE visible
25 Jul 5.0 22:27:58 10° WNW 22:29:39 18° NW 22:29:39 18° NW visible
26 Jul 4.1 07:00:51 10° NW 07:04:35 29° NNE 07:08:20 10° E visible
26 Jul 2.8 20:39:49 10° WSW 20:43:57 59° NNW 20:48:05 10° ENE visible
26 Jul 4.9 22:23:16 10° WNW 22:25:17 16° NNW 22:25:17 16° NNW visible
27 Jul 3.5 06:55:25 11° NW 06:59:17 40° NNE 07:03:19 10° E visible
27 Jul 3.5 20:34:40 10° W 20:38:39 41° NNW 20:42:36 10° NE visible
27 Jul 5.1 22:18:50 10° NW 22:20:47 13° NNW 22:20:52 13° NNW visible
28 Jul 2.9 06:51:07 19° NW 06:53:58 57° NNE 06:58:10 10° E visible
28 Jul 4.1 20:29:39 10° W 20:33:21 29° NNW 20:37:02 10° NE visible
29 Jul 2.3 06:46:49 33° WNW 06:48:38 82° NNE 06:52:56 10° ESE visible
30 Jul 2.2 06:42:30 54° W 06:43:18 70° SSW 06:47:34 10° ESE visible
31 Jul 2.6 06:38:07 48° SSW 06:38:07 48° SSW 06:42:08 10° SE visible
01 Aug 3.5 06:33:41 30° S 06:33:41 30° S 06:36:36 10° SE visible
02 Aug 4.2 06:29:09 19° SSE 06:29:09 19° SSE 06:30:57 10° SE visible
03 Aug 4.8 06:24:32 13° SSE 06:24:32 13° SSE 06:25:13 10° SSE visible
